Location: LC-39B
(28.6273°N, 80.6211°W)
Time: 10:50:24
(UTC+00:00)

ISS - Visible Passes

Search period start: 29 June 2016 00:00
Search period end: 09 July 2016 00:00
Orbit: 402 x 403 km, 51.6° (Epoch: 28 June)

Date Brightness Start Highest point End Pass type
(mag) Time Alt. Az. Time Alt. Az. Time Alt. Az.
03 Jul -0.7 09:45:38 10° SSE 09:47:41 16° SE 09:49:44 10° E visible
05 Jul -2.6 09:35:41 14° SSW 09:38:19 47° SE 09:41:29 10° NE visible
06 Jul -1.3 08:45:15 19° SE 08:45:39 20° SE 08:48:06 10° ENE visible
07 Jul -2.9 09:27:22 23° WSW 09:29:05 49° NW 09:32:15 10° NNE visible
08 Jul -2.7 08:36:46 54° E 08:36:46 54° E 08:39:31 10° NE visible
